Starlink 30904

operational
NORAD ID: 58364 Int'l Des: 2023-177 Owner: SPXS Country: US Constellation: starlink
LEOCIRCULAR

About Starlink 30904

Description loading...

Live Position

Loading 3D Globe...

Upcoming Passes

Altitude History

Altitude vs Time

uPlot chart will show altitude changes over time

Two-Line Element Set

1 58364U 23177P 25351.26086682 -.00001054 00000-0 -62992-4 0 9994
2 58364 43.0047 78.0036 0001369 264.9152 95.1534 15.02524403115839
Epoch: Dec 17, 2025 • Age: 21 hours

Current Status

Altitude 566.0 km
Velocity 7.58 km/s
Sub-Earth Point -28.81°S, 91.59°W
Launch Date Nov 18, 2023
Age 2 years
Type internet

Technical Details

Classification Payload
Mass 730.00 kg
Dry Mass 700.00 kg
Total Mass 730.00 kg
Length 0.30 m
Diameter 4.10 m
Span 29.00 m
Shape Box + pan
Manufacturer SPXS
Bus Type Starlink V2M
Phase Status In Orbit
Owner/State SPXS/US

Large Constellations

Loading constellations...